MDT,Max TemperatureF,Mean TemperatureF,Min TemperatureF,Max Dew PointF,MeanDew PointF,Min DewpointF,Max Humidity, Mean Humidity, Min Humidity, Max Sea Level PressureIn, Mean Sea Level PressureIn, Min Sea Level PressureIn, Max VisibilityMiles, Mean VisibilityMiles, Min VisibilityMiles, Max Wind SpeedMPH, Mean Wind SpeedMPH, Max Gust SpeedMPH,PrecipitationIn, CloudCover, Events, WindDirDegrees
2014-3-1,53,45,37,39,34,31,86,68,50,29.81,29.71,29.55,10,10,6,30,12,40,0.09,5,Rain,206
2014-3-2,53,44,34,35,32,26,92,65,38,30.08,29.94,29.80,10,10,9,13,5,15,0.02,4,Rain,141
2014-3-3,56,44,32,30,27,25,75,53,30,30.13,30.04,29.99,10,10,10,14,6,16,0.00,2,,134
2014-3-4,55,44,33,37,31,23,79,56,32,30.08,29.95,29.81,10,9,2,24,7,29,0.16,4,Rain,109
2014-3-5,54,42,29,33,27,21,96,62,28,30.25,30.16,30.07,10,10,10,13,5,15,0.00,0,,138
2014-3-6,60,45,29,34,24,19,72,46,20,30.19,30.01,29.81,10,10,10,21,6,25,T,2,,127
2014-3-7,45,39,32,36,33,29,92,77,62,30.11,29.94,29.75,10,7,1,23,6,28,0.30,6,Rain-Snow,153
2014-3-8,51,41,30,30,28,23,92,64,36,30.40,30.28,30.13,10,10,10,10,4,12,0.00,1,,150
2014-3-9,61,45,29,30,23,14,78,48,17,30.44,30.31,30.17,10,10,10,16,5,21,0.00,0,,131
2014-3-10,68,49,29,24,16,0,72,40,7,30.20,29.97,29.68,10,10,10,21,7,28,0.00,0,,196
2014-3-11,55,42,28,26,17,12,63,41,18,30.22,29.94,29.69,10,10,10,28,13,35,T,4,,307
2014-3-12,50,37,23,20,17,9,81,50,18,30.40,30.29,30.19,10,10,10,13,6,14,0.00,0,,155
2014-3-13,57,40,26,30,21,15,71,49,21,30.22,30.07,29.94,10,10,10,14,7,,0.00,2,,161
2014-3-14,59,44,28,29,21,6,78,46,13,30.06,29.98,29.92,10,10,10,14,6,16,0.00,0,,119
2014-3-15,49,39,28,25,15,2,69,42,14,30.37,30.13,29.97,10,10,9,35,13,43,0.00,2,,356
2014-3-16,57,40,23,21,14,11,62,40,18,30.48,30.32,30.13,10,10,10,13,5,14,0.00,0,,140
2014-3-17,65,48,30,20,14,1,63,38,12,30.11,29.70,29.38,10,10,4,40,15,50,0.00,0,,234
2014-3-18,45,36,26,18,13,3,63,45,27,30.09,29.89,29.69,10,10,10,21,7,24,0.00,5,,327
2014-3-19,51,36,21,18,14,8,77,47,17,30.28,30.19,30.10,10,10,10,14,6,17,0.00,0,,114
2014-3-20,61,42,23,17,9,1,58,34,9,30.19,30.06,29.90,10,10,10,14,6,18,0.00,0,,131
2014-3-21,59,45,30,22,13,7,47,31,14,29.96,29.89,29.83,10,10,10,18,6,24,0.00,2,,150
2014-3-22,51,42,33,37,27,18,82,56,29,30.17,29.97,29.79,10,10,8,25,7,34,T,4,Rain,200
2014-3-23,61,43,25,28,15,4,85,48,11,30.25,30.13,29.99,10,10,10,23,7,31,0.00,0,,160
2014-3-24,60,44,28,14,9,3,50,30,10,30.18,30.13,30.09,10,10,10,20,8,23,0.00,0,,107
2014-3-25,68,49,29,16,12,1,49,28,7,30.14,29.95,29.72,10,10,10,15,7,23,0.00,0,,157
2014-3-26,60,50,40,37,28,13,79,52,24,29.69,29.54,29.34,10,9,2,39,12,53,0.04,5,Rain-Thunderstorm,196
2014-3-27,54,46,38,34,27,12,79,50,20,29.86,29.72,29.54,10,10,10,31,8,39,T,6,Rain,200
2014-3-28,54,43,32,28,17,9,75,46,17,30.21,30.06,29.88,10,10,2,15,7,21,0.00,2,,142
2014-3-29,66,47,27,17,15,10,63,38,12,30.25,30.10,29.90,10,10,10,21,7,28,0.00,0,,159
2014-3-30,65,53,40,27,17,11,40,27,13,29.88,29.67,29.40,10,9,2,40,17,61,T,2,Rain,208
2014-3-31,55,40,25,21,12,3,63,38,13,30.02,29.90,29.77,10,10,10,18,6,23,0.00,1,,118